Location: Unspecified
(48.8656°N, 0.0000°E)
Time: 19:30:55
(UTC+00:00)

Tiangong 2 - Pass Details

Date: 24 May 2019
Orbit: 376 x 389 km, 42.8° (Epoch: 18 June)

Event Time Altitude Azimuth Distance (km) Brightness Sun altitude
Rises 21:44:40 0° 260° (W) 2,236 5.2 -14.3°
Reaches altitude 10° 21:46:58 10° 245° (WSW) 1,383 3.9 -14.5°
Enters shadow 21:49:11 23° 200° (SSW) 863 2.5 -14.7°
